When you browse on this site, cookies collect data to enhance your experience and personalize the content and advertising you see.
Visit our Privacy Policy to learn more. By continuing to use the site, you agree to this use of cookies and data.
  • en France
  • Liste des pays
  • À 7 jours
  • Température de l'eau
  • Carte satellitaire
  • Carte météo
  • Widgets météo
  • user-avatar
    Se connecter

    Météo par heure à Klagenfurt

    Ce jour, 18 Décembre, Mardi

    Heure Température Précipitation Vent Pression Humidité
    00:00 -2°C° 0 mm 1 m/s 695 mmHg 85%
    01:00 -3°C° 0 mm 1 m/s 695 mmHg 87%
    02:00 -3°C° 0 mm 1 m/s 695 mmHg 87%
    03:00 -3°C° 0 mm 1 m/s 695 mmHg 87%
    04:00 -3°C° 0 mm 1 m/s 695 mmHg 86%
    05:00 -3°C° 0 mm 1 m/s 695 mmHg 86%
    06:00 -3°C° 0 mm 1 m/s 696 mmHg 86%
    07:00 -3°C° 0 mm 1 m/s 695 mmHg 87%
    08:00 -3°C° 0 mm 0 m/s 696 mmHg 83%
    09:00 -2°C° 0 mm 0 m/s 696 mmHg 78%
    10:00 0°C° 0 mm 0 m/s 696 mmHg 73%
    11:00 +1°C° 0 mm 0 m/s 696 mmHg 70%
    12:00 +2°C° 0 mm 0 m/s 696 mmHg 68%
    13:00 +3°C° 0 mm 1 m/s 696 mmHg 69%
    14:00 +2°C° 0 mm 1 m/s 695 mmHg 75%
    15:00 +1°C° 0 mm 1 m/s 695 mmHg 81%
    16:00 0°C° 0 mm 1 m/s 695 mmHg 86%
    17:00 -1°C° 0 mm 1 m/s 695 mmHg 88%
    18:00 -1°C° 0 mm 1 m/s 695 mmHg 89%
    19:00 -2°C° 0 mm 1 m/s 695 mmHg 91%
    20:00 -2°C° 0 mm 1 m/s 694 mmHg 91%
    21:00 -2°C° 0 mm 1 m/s 694 mmHg 91%
    22:00 -2°C° 0 mm 1 m/s 694 mmHg 91%
    23:00 -2°C° 0 mm 1 m/s 694 mmHg 91%

    Demain, 19 Décembre, Mercredi

    Heure Température Précipitation Vent Pression Humidité
    00:00 -2°C° 0 mm 1 m/s 694 mmHg 91%
    01:00 -2°C° 0 mm 1 m/s 694 mmHg 91%
    02:00 -2°C° 0 mm 1 m/s 693 mmHg 90%
    03:00 -2°C° 0 mm 1 m/s 693 mmHg 90%
    04:00 -3°C° 0 mm 1 m/s 693 mmHg 90%
    05:00 -3°C° 0 mm 1 m/s 693 mmHg 90%
    06:00 -3°C° 0 mm 1 m/s 693 mmHg 89%
    07:00 -3°C° 0 mm 1 m/s 692 mmHg 89%
    08:00 -2°C° 0 mm 1 m/s 693 mmHg 84%
    09:00 -1°C° 0 mm 1 m/s 693 mmHg 80%
    10:00 0°C° 0 mm 1 m/s 693 mmHg 75%
    11:00 +1°C° 0 mm 1 m/s 693 mmHg 72%
    12:00 +2°C° 0 mm 1 m/s 692 mmHg 68%
    13:00 +3°C° 0 mm 1 m/s 692 mmHg 65%
    14:00 +2°C° 0 mm 1 m/s 692 mmHg 69%
    15:00 +1°C° 0 mm 1 m/s 691 mmHg 74%
    16:00 0°C° 0 mm 1 m/s 691 mmHg 78%
    17:00 0°C° 0 mm 1 m/s 691 mmHg 79%
    18:00 0°C° 0 mm 1 m/s 691 mmHg 80%
    19:00 -1°C° 0 mm 1 m/s 690 mmHg 81%
    20:00 -1°C° 0 mm 1 m/s 690 mmHg 81%
    21:00 -1°C° 0 mm 1 m/s 690 mmHg 81%
    22:00 -1°C° 0 mm 1 m/s 690 mmHg 81%
    23:00 -1°C° 0.1 mm 1 m/s 690 mmHg 81%

    Après-demain, 20 Décembre, Jeudi

    Heure Température Précipitation Vent Pression Humidité
    00:00 -1°C° 0.1 mm 1 m/s 690 mmHg 82%
    01:00 -1°C° 0.1 mm 1 m/s 690 mmHg 83%
    02:00 -1°C° 0.3 mm 1 m/s 690 mmHg 84%
    03:00 0°C° 0.3 mm 1 m/s 690 mmHg 86%
    04:00 0°C° 0.3 mm 1 m/s 690 mmHg 88%
    05:00 0°C° 0.5 mm 1 m/s 690 mmHg 89%
    06:00 +1°C° 0.5 mm 1 m/s 690 mmHg 90%
    07:00 0°C° 0.5 mm 0 m/s 690 mmHg 91%
    08:00 0°C° 0.8 mm 0 m/s 690 mmHg 90%
    09:00 0°C° 0.8 mm 0 m/s 691 mmHg 89%
    10:00 +2°C° 0.8 mm 1 m/s 691 mmHg 88%
    11:00 +1°C° 0.3 mm 0 m/s 691 mmHg 86%
    12:00 +2°C° 0.3 mm 0 m/s 691 mmHg 84%
    13:00 +3°C° 0.3 mm 0 m/s 691 mmHg 82%
    14:00 +2°C° 0.1 mm 0 m/s 691 mmHg 85%
    15:00 +2°C° 0.1 mm 0 m/s 691 mmHg 88%
    16:00 +1°C° 0.1 mm 0 m/s 691 mmHg 90%
    17:00 +1°C° 0.1 mm 0 m/s 692 mmHg 90%
    18:00 +1°C° 0.1 mm 0 m/s 692 mmHg 90%
    19:00 +2°C° 0.1 mm 1 m/s 693 mmHg 90%
    20:00 0°C° 0.1 mm 0 m/s 693 mmHg 90%
    21:00 0°C° 0.1 mm 0 m/s 693 mmHg 90%
    22:00 0°C° 0.1 mm 0 m/s 694 mmHg 90%
    23:00 0°C° 0 mm 0 m/s 694 mmHg 90%

    21 Décembre, Vendredi

    Heure Température Précipitation Vent Pression Humidité
    00:00 -1°C° 0 mm 0 m/s 694 mmHg 90%
    01:00 -1°C° 0 mm 0 m/s 694 mmHg 89%
    02:00 -1°C° 0 mm 0 m/s 694 mmHg 89%
    03:00 -1°C° 0 mm 0 m/s 694 mmHg 89%
    04:00 -2°C° 0 mm 0 m/s 694 mmHg 89%
    05:00 0°C° 0 mm 1 m/s 694 mmHg 89%
    06:00 0°C° 0 mm 1 m/s 694 mmHg 89%
    07:00 0°C° 0 mm 1 m/s 694 mmHg 90%
    08:00 +1°C° 0 mm 1 m/s 694 mmHg 89%
    09:00 +2°C° 0 mm 1 m/s 694 mmHg 88%
    10:00 +3°C° 0 mm 1 m/s 694 mmHg 87%
    11:00 +2°C° 0 mm 2 m/s 693 mmHg 87%
    12:00 +3°C° 0 mm 2 m/s 693 mmHg 86%
    13:00 +3°C° 0 mm 2 m/s 692 mmHg 86%
    14:00 +3°C° 0 mm 2 m/s 692 mmHg 88%
    15:00 +2°C° 0 mm 2 m/s 691 mmHg 90%
    16:00 +2°C° 0 mm 2 m/s 691 mmHg 92%
    17:00 +1°C° 0 mm 2 m/s 691 mmHg 92%
    18:00 +1°C° 0 mm 2 m/s 691 mmHg 92%
    19:00 +1°C° 0 mm 2 m/s 691 mmHg 93%
    20:00 -1°C° 0 mm 2 m/s 691 mmHg 93%
    21:00 -1°C° 0 mm 2 m/s 691 mmHg 93%
    22:00 -1°C° 0 mm 2 m/s 691 mmHg 93%
    23:00 -1°C° 0 mm 2 m/s 691 mmHg 92%

    22 Décembre, Samedi

    Heure Température Précipitation Vent Pression Humidité
    00:00 -1°C° 0 mm 2 m/s 691 mmHg 92%
    01:00 -1°C° 0 mm 2 m/s 691 mmHg 92%
    02:00 -1°C° 0 mm 2 m/s 691 mmHg 92%
    03:00 +1°C° 0 mm 2 m/s 690 mmHg 91%
    04:00 +1°C° 0 mm 2 m/s 690 mmHg 91%
    05:00 +1°C° 0 mm 2 m/s 690 mmHg 91%
    06:00 +2°C° 0 mm 1 m/s 691 mmHg 91%
    07:00 +2°C° 0 mm 1 m/s 691 mmHg 92%
    08:00 +2°C° 0 mm 2 m/s 691 mmHg 90%
    09:00 +2°C° 0 mm 2 m/s 691 mmHg 89%
    10:00 +3°C° 0 mm 2 m/s 691 mmHg 88%
    11:00 +4°C° 0 mm 2 m/s 690 mmHg 88%
    12:00 +5°C° 0 mm 2 m/s 690 mmHg 87%
    13:00 +5°C° 0 mm 2 m/s 690 mmHg 86%
    14:00 +5°C° 0 mm 2 m/s 690 mmHg 89%
    15:00 +4°C° 0 mm 2 m/s 690 mmHg 91%
    16:00 +4°C° 0 mm 1 m/s 690 mmHg 93%
    17:00 +4°C° 0 mm 1 m/s 690 mmHg 93%
    18:00 +3°C° 0 mm 1 m/s 690 mmHg 93%
    19:00 +3°C° 0 mm 1 m/s 690 mmHg 94%
    20:00 +2°C° 0 mm 1 m/s 690 mmHg 93%
    21:00 +2°C° 0 mm 1 m/s 690 mmHg 93%
    22:00 +2°C° 0 mm 1 m/s 691 mmHg 92%
    23:00 +2°C° 0 mm 1 m/s 691 mmHg 92%

    23 Décembre, Dimanche

    Heure Température Précipitation Vent Pression Humidité
    00:00 +2°C° 0 mm 1 m/s 691 mmHg 91%
    01:00 +2°C° 0 mm 1 m/s 691 mmHg 90%
    02:00 +2°C° 0 mm 1 m/s 691 mmHg 90%
    03:00 +2°C° 0 mm 1 m/s 691 mmHg 90%
    04:00 +2°C° 0 mm 1 m/s 691 mmHg 89%
    05:00 +2°C° 0 mm 1 m/s 692 mmHg 89%
    06:00 +2°C° 0 mm 1 m/s 692 mmHg 89%
    07:00 +2°C° 0 mm 1 m/s 692 mmHg 89%
    08:00 +3°C° 0 mm 1 m/s 693 mmHg 88%
    09:00 +4°C° 0 mm 1 m/s 693 mmHg 86%
    10:00 +5°C° 0 mm 1 m/s 694 mmHg 85%
    11:00 +6°C° 0 mm 1 m/s 694 mmHg 85%
    12:00 +7°C° 0 mm 1 m/s 693 mmHg 85%
    13:00 +8°C° 0 mm 1 m/s 693 mmHg 86%
    14:00 +7°C° 0 mm 1 m/s 693 mmHg 88%
    15:00 +6°C° 0 mm 1 m/s 693 mmHg 91%
    16:00 +5°C° 0 mm 1 m/s 693 mmHg 94%
    17:00 +5°C° 0 mm 1 m/s 693 mmHg 94%
    18:00 +4°C° 0 mm 1 m/s 693 mmHg 94%
    19:00 +4°C° 0 mm 1 m/s 693 mmHg 95%
    20:00 +4°C° 0 mm 1 m/s 693 mmHg 94%
    21:00 +3°C° 0 mm 1 m/s 693 mmHg 93%
    22:00 +3°C° 0 mm 1 m/s 693 mmHg 93%
    23:00 +3°C° 0 mm 1 m/s 693 mmHg 93%
    Voir plus